CDT,Max TemperatureF,Mean TemperatureF,Min TemperatureF,Max Dew PointF,MeanDew PointF,Min DewpointF,Max Humidity, Mean Humidity, Min Humidity, Max Sea Level PressureIn, Mean Sea Level PressureIn, Min Sea Level PressureIn, Max VisibilityMiles, Mean VisibilityMiles, Min VisibilityMiles, Max Wind SpeedMPH, Mean Wind SpeedMPH, Max Gust SpeedMPH,PrecipitationIn, CloudCover, Events, WindDirDegrees
2012-10-1,69,58,46,52,45,39,81,60,43,29.95,29.90,29.85,10,10,10,16,6,22,0.00,0,,320
2012-10-2,71,53,35,46,40,36,100,64,31,29.98,29.92,29.86,10,10,10,7,2,,0.00,0,,185
2012-10-3,77,58,39,48,43,37,100,63,32,29.93,29.89,29.84,10,10,5,14,3,21,0.00,0,,152
2012-10-4,62,50,39,45,37,30,82,65,45,30.18,30.02,29.82,10,10,7,26,15,34,0.00,5,,255
2012-10-5,48,40,33,34,28,27,81,62,46,30.18,30.15,30.12,10,10,10,25,15,32,0.00,4,,279
2012-10-6,42,38,33,32,27,23,87,67,46,30.27,30.22,30.15,10,10,5,14,10,21,0.00,7,,305
2012-10-7,53,37,21,27,24,19,93,58,28,30.23,30.09,29.91,10,10,4,17,6,24,0.00,0,,202
2012-10-8,66,52,37,43,34,25,71,55,30,29.90,29.76,29.61,10,10,7,20,9,30,0.00,4,,191
2012-10-9,51,43,35,48,36,27,100,73,50,30.00,29.84,29.75,10,10,7,24,8,30,0.01,7,Rain,257
2012-10-10,53,42,30,28,27,25,86,56,38,30.12,30.03,29.88,10,10,10,13,9,20,0.00,3,,243
2012-10-11,53,42,30,36,28,18,76,52,32,30.38,30.09,29.83,10,10,10,20,11,28,0.00,2,,304
2012-10-12,51,34,17,27,20,16,100,59,26,30.43,30.32,30.04,10,10,10,17,4,26,0.00,1,,146
2012-10-13,57,45,33,57,49,27,100,94,43,30.03,29.79,29.67,10,6,2,21,10,28,0.01,8,Rain,149
2012-10-14,57,52,46,50,43,34,100,78,44,29.89,29.77,29.69,10,9,3,22,10,25,0.00,6,,331
2012-10-15,62,45,28,43,38,28,100,65,39,29.97,29.89,29.76,10,10,10,16,5,18,0.00,1,,200
2012-10-16,66,54,42,52,47,43,100,76,60,29.76,29.53,29.37,10,10,4,16,9,20,0.00,1,Rain,162
2012-10-17,60,52,44,54,46,41,100,80,55,29.37,29.28,29.19,10,9,3,22,7,32,0.00,5,Rain,217
2012-10-18,46,42,37,43,42,37,100,97,87,29.39,29.27,29.19,10,8,2,12,6,16,0.02,7,Rain,262
2012-10-19,50,42,33,48,43,34,100,98,87,29.74,29.58,29.39,10,6,0,13,2,18,0.10,7,Fog-Rain,324
2012-10-20,48,40,33,46,43,34,100,95,87,29.83,29.79,29.74,10,6,0,9,4,,0.00,7,Fog,189
2012-10-21,71,56,41,55,48,41,100,79,53,29.90,29.82,29.76,10,10,7,20,8,23,0.00,0,,151
2012-10-22,62,52,42,54,50,43,100,87,72,29.91,29.88,29.85,10,9,3,14,5,20,0.00,7,Thunderstorm,40
2012-10-23,66,60,55,61,59,54,100,94,83,29.85,29.76,29.70,10,5,2,14,8,23,0.00,8,Thunderstorm,137
2012-10-24,60,54,48,57,55,48,100,97,88,29.85,29.79,29.74,10,4,1,14,4,20,0.14,8,Rain-Thunderstorm,343
2012-10-25,48,42,35,48,37,27,100,91,70,30.18,29.88,29.65,10,9,2,20,14,31,0.66,8,Rain-Snow-Thunderstorm,310
2012-10-26,39,34,30,28,27,25,86,71,56,30.38,30.32,30.19,10,10,10,18,11,24,0.00,5,,268
2012-10-27,42,33,24,28,24,21,100,71,45,30.37,30.33,30.29,10,10,10,9,3,,0.00,2,,220
2012-10-28,46,34,21,27,24,19,100,71,43,30.34,30.31,30.27,10,10,10,12,3,18,0.00,3,,152
2012-10-29,44,36,28,30,27,21,80,66,57,30.32,30.28,30.23,10,10,10,14,4,17,0.00,5,,128
2012-10-30,46,34,23,32,27,19,100,73,50,30.23,30.13,30.05,10,10,10,10,3,,0.00,0,,357
2012-10-31,48,34,19,34,23,16,93,65,34,30.06,30.00,29.93,10,10,10,10,3,,0.00,2,,305